[[{"header":{"parameterUnit":"m.s-1","parameterCategory":2,"la1":30.2992,"la2":30.254,"lo1":-89.0895,"lo2":-89.0443,"dy":0.0025,"dx":0.0025,"nx":19,"ny":19,"refTime":"2026-03-19T09:00:00:Z","depth":"0","parameterNumber":2,"parameterNumberName":"U-component_of_CURRENTS"},"data":[0,0,0,0.0385,0.0385,0.0395,0.0395,0.0473,0.0474,0,0,0,0,0,0,0,0,0,0,0,0.0389,0.0389,0.0385,0.0385,0.0395,0.0395,0.0473,0.0474,0,0,0,0,0,0,0,0,0,0,0,0.0389,0.0389,0.039,0.0385,0.0395,0.0395,0.0473,0.045,0,0,0,0,0,0,0,0,0,0,0.0432,0.0429,0.0389,0.039,0.0385,0.0395,0.0395,0.0448,0.0452,0.0485,0,0.0489,0,0.048,0.048,0.0481,0,0,0,0.0389,0.0426,0.0424,0.039,0.0385,0.0395,0.0392,0.045,0.0453,0.049,0.049,0.0492,0.0481,0.0481,0.0481,0.0706,0.0708,0,0,0.0389,0.0398,0.0421,0.0426,0.0392,0.0391,0.0392,0.0451,0.0462,0.049,0.0494,0.0483,0.0481,0.0482,0.0704,0.0707,0,0,0,0.0384,0.0398,0.0393,0.0424,0.0419,0.0392,0.0392,0.046,0.0456,0.0494,0.0483,0.0482,0.0483,0.0702,0.0705,0.0785,0,0,0,0.0384,0.0394,0.0392,0.0399,0.0417,0.0431,0.04,0.0452,0.0458,0.0483,0.0482,0.0484,0.07,0.0704,0.0779,0.0843,0,0,0,0.0388,0.0395,0.0396,0.0399,0.04,0.0429,0.0429,0.0453,0.0452,0.0481,0.0484,0.0699,0.0703,0.0773,0.0833,0.1037,0,0,0,0.0397,0.0447,0.0396,0.0452,0.0399,0.0454,0.0429,0.0464,0.0492,0.0483,0.0701,0.0705,0.0771,0.0827,0.1028,0.1175,0.1225,0,0,0.0474,0.0457,0.0492,0.0447,0.0509,0.0453,0.0561,0.0571,0.0577,0.0681,0.0686,0.0781,0.0832,0.1035,0.1417,0.146,0,0,0,0.0526,0.0574,0.058,0.0599,0.0585,0.0626,0.0619,0.0657,0.0756,0.0612,0.0844,0.0876,0.1001,0.1073,0.1109,0.1185,0.0724,0.0724,0.0723,0.0757,0.0708,0.0758,0.0725,0.0747,0.0761,0.0832,0.0898,0.0851,0.0931,0.0986,0.1259,0.1336,0.1365,0.1441,0.1024,0.1024,0.1024,0.1025,0.0939,0.0949,0.0892,0.0922,0.0896,0.0972,0.1063,0.1072,0.1261,0.1144,0.1261,0.1209,0.1408,0.1476,0.1031,0.103,0.1029,0.1028,0.1028,0.1099,0.1064,0.1065,0.1057,0.1103,0.1114,0.13,0.1338,0.1393,0.1485,0.164,0.1639,0.1666,0.1566,0.1567,0.1568,0.1569,0.157,0.1571,0.1212,0.1187,0.1232,0.1212,0.1233,0.1326,0.1456,0.16,0.1783,0.18,0.1802,0.1808,0.1426,0.1368,0.1589,0.1586,0.1584,0.1582,0.1581,0.1336,0.1326,0.1393,0.1425,0.1485,0.1586,0.1711,0.1995,0.2162,0.2294,0.2287,0.2,0.2016,0.1987,0.1946,0.2305,0.2305,0.2305,0.2305,0.1419,0.1419,0.1512,0.1591,0.169,0.1726,0.1987,0.2191,0.2473,0.2618,0.2626,0.25,0.2467,0.2499,0.2459,0.2422,0.2894,0.2895,0.2895,0.1486,0.1504,0.158,0.1638,0.1748,0.1861,0.2,0.2189,0.2668,0.2919,0.2717,0.2692,0.249,0.2432,0.2451,0.2389,0.2315,0,0]},{"header":{"parameterUnit":"m.s-1","parameterCategory":2,"la1":30.2992,"la2":30.254,"lo1":-89.0895,"lo2":-89.0443,"dy":0.0025,"dx":0.0025,"nx":19,"ny":19,"refTime":"2026-03-19T09:00:00:Z","depth":"0","parameterNumber":3,"parameterNumberName":"V-component_of_CURRENTS"},"data":[0,0,0,0.0422,0.042,0.0317,0.0316,0.0253,0.0252,0,0,0,0,0,0,0,0,0,0,0,0.0456,0.0455,0.0422,0.042,0.0317,0.0316,0.0253,0.0252,0,0,0,0,0,0,0,0,0,0,0,0.0456,0.0455,0.0454,0.0419,0.0317,0.0316,0.0253,0.0314,0,0,0,0,0,0,0,0,0,0,0.0405,0.0486,0.0455,0.0454,0.0419,0.0317,0.0316,0.0316,0.031,0.0318,0,0.0295,0,0.0274,0.0249,0.0249,0,0,0,0.042,0.0491,0.0403,0.0454,0.0418,0.0317,0.0363,0.0312,0.0305,0.0311,0.0294,0.0291,0.0273,0.0249,0.0249,0.0311,0.0312,0,0,0.0426,0.0497,0.0408,0.0399,0.0383,0.0367,0.036,0.0307,0.0335,0.0294,0.0289,0.0271,0.0249,0.0248,0.031,0.0311,0,0,0,0.0442,0.0502,0.0415,0.0402,0.0378,0.0364,0.0356,0.0338,0.0291,0.0288,0.0271,0.0249,0.0248,0.0309,0.0311,0.0424,0,0,0,0.0445,0.0509,0.0418,0.0468,0.0379,0.0363,0.0389,0.0295,0.0288,0.0271,0.0249,0.0248,0.0308,0.031,0.0418,0.0516,0,0,0,0.0462,0.0514,0.0484,0.047,0.0418,0.0362,0.0316,0.0292,0.0278,0.0249,0.0248,0.0307,0.031,0.0414,0.0506,0.0631,0,0,0,0.056,0.0563,0.0487,0.0522,0.0419,0.0376,0.0315,0.0285,0.0263,0.0248,0.0308,0.0311,0.0412,0.05,0.0624,0.0759,0.0802,0,0,0.0614,0.0573,0.0595,0.0523,0.0498,0.0391,0.044,0.0365,0.031,0.0327,0.0328,0.042,0.0506,0.0629,0.0895,0.0935,0,0,0,0.0647,0.0667,0.0648,0.0629,0.0543,0.0535,0.0443,0.0424,0.0418,0.0307,0.0437,0.0489,0.0562,0.0629,0.0661,0.0424,0.0321,0.0321,0.0321,0.0868,0.0794,0.0814,0.0727,0.0708,0.0631,0.064,0.0607,0.0507,0.0528,0.0591,0.0782,0.0854,0.0879,0.0633,0.0576,0.0577,0.0577,0.0577,0.0998,0.0994,0.0941,0.0923,0.0857,0.0883,0.086,0.0807,0.0847,0.0723,0.0788,0.0758,0.0921,0.0645,0.0585,0.0584,0.0583,0.0582,0.0581,0.1139,0.1094,0.1091,0.1053,0.1082,0.1048,0.1185,0.1114,0.1018,0.1053,0.1127,0.1125,0.0878,0.1077,0.1078,0.1079,0.108,0.108,0.1081,0.1229,0.1198,0.1214,0.1186,0.1205,0.1305,0.1368,0.143,0.1424,0.1315,0.1315,0.0935,0.0936,0.091,0.1096,0.1094,0.1092,0.109,0.1089,0.1296,0.128,0.1326,0.1344,0.1427,0.1585,0.1669,0.1838,0.1845,0.1867,0.1329,0.1453,0.1446,0.142,0.1407,0.1711,0.1711,0.1711,0.1711,0.1339,0.1331,0.1409,0.1489,0.1622,0.1729,0.2027,0.213,0.1863,0.164,0.1446,0.1291,0.1277,0.1246,0.1223,0.1199,0.1444,0.1443,0.1442,0.136,0.1393,0.1465,0.1544,0.1693,0.191,0.216,0.2293,0.1825,0.1395,0.1091,0.1102,0.0826,0.0822,0.0725,0.0713,0.0656,0,0]}],[{"header":{"parameterUnit":"m.s-1","parameterCategory":2,"la1":30.2992,"la2":30.254,"lo1":-89.0895,"lo2":-89.0443,"dy":0.0025,"dx":0.0025,"nx":19,"ny":19,"refTime":"2026-03-19T09:00:00:Z","depth":"2","parameterNumber":2,"parameterNumberName":"U-component_of_CURRENTS"},"data":[0,0,0,0.0283,0.0284,0.0333,0.0333,0.0375,0.0375,0,0,0,0,0,0,0,0,0,0,0,0.0255,0.0256,0.0283,0.0285,0.0333,0.0333,0.0375,0.0375,0,0,0,0,0,0,0,0,0,0,0,0.0255,0.0256,0.0256,0.0285,0.0333,0.0333,0.0374,0.034,0,0,0,0,0,0,0,0,0,0,0.0295,0.0263,0.0256,0.0256,0.0285,0.0333,0.0333,0.0339,0.0342,0.035,0,0.0359,0,0.0378,0.0378,0.0379,0,0,0,0.0274,0.0259,0.029,0.0256,0.0286,0.0333,0.0308,0.0341,0.0345,0.0355,0.036,0.0362,0.0378,0.0379,0.0379,0.0507,0.0507,0,0,0.0271,0.0247,0.0287,0.0293,0.03,0.0307,0.031,0.0344,0.0338,0.036,0.0363,0.0379,0.0379,0.0379,0.0506,0.0507,0,0,0,0.0271,0.0245,0.0275,0.0291,0.0307,0.0308,0.0312,0.0336,0.0351,0.0364,0.038,0.0379,0.038,0.0504,0.0506,0.0512,0,0,0,0.0269,0.0246,0.0273,0.0257,0.0306,0.0322,0.0303,0.0348,0.0353,0.0379,0.0379,0.038,0.0503,0.0505,0.0509,0.0529,0,0,0,0.0253,0.0244,0.0254,0.0256,0.0286,0.0322,0.0338,0.0349,0.0363,0.0379,0.0381,0.0502,0.0505,0.0507,0.0525,0.0542,0,0,0,0.0221,0.0234,0.0253,0.0272,0.0286,0.0345,0.0338,0.0368,0.0383,0.038,0.0503,0.0506,0.0506,0.0523,0.054,0.0615,0.0631,0,0,0.0224,0.0234,0.0248,0.0267,0.0317,0.0338,0.0402,0.0411,0.0428,0.0486,0.0489,0.051,0.0525,0.0542,0.0757,0.0768,0,0,0,0.024,0.0236,0.0258,0.0287,0.0346,0.0395,0.0427,0.0457,0.0511,0.0452,0.0558,0.0569,0.0578,0.0621,0.0632,0.0517,0.0517,0.0517,0.0517,0.0176,0.0222,0.0255,0.0314,0.0358,0.0442,0.0491,0.0547,0.0552,0.0593,0.0608,0.0678,0.0726,0.0734,0.064,0.064,0.064,0.064,0.064,0.0161,0.0181,0.0248,0.0284,0.0369,0.0435,0.0554,0.0581,0.0686,0.0676,0.0683,0.067,0.0746,0.0642,0.0642,0.0641,0.0641,0.0641,0.0641,0.0099,0.0128,0.0153,0.0235,0.0319,0.0426,0.0535,0.0631,0.0691,0.0731,0.0777,0.0777,0.0656,0.0729,0.0729,0.0729,0.0729,0.0729,0.073,0.0034,0.0081,0.0111,0.0182,0.0249,0.0338,0.0538,0.0626,0.0766,0.082,0.0821,0.0708,0.0705,0.0664,0.0732,0.0732,0.0732,0.0731,0.0731,-0.0021,0.0,0.0057,0.01,0.0239,0.035,0.0494,0.0726,0.0825,0.0879,0.0869,0.0865,0.0871,0.0865,0.083,0.0937,0.0937,0.0937,0.0937,-0.0058,-0.0044,0.0055,0.0141,0.0238,0.0361,0.0601,0.0791,0.093,0.0979,0.0977,0.0965,0.0957,0.0966,0.0956,0.0922,0.1053,0.1053,0.1053,-0.0065,-0.003,0.0041,0.0139,0.0258,0.0414,0.0663,0.0905,0.1031,0.1051,0.0929,0.0958,0.0934,0.0923,0.093,0.0918,0.086,0,0]},{"header":{"parameterUnit":"m.s-1","parameterCategory":2,"la1":30.2992,"la2":30.254,"lo1":-89.0895,"lo2":-89.0443,"dy":0.0025,"dx":0.0025,"nx":19,"ny":19,"refTime":"2026-03-19T09:00:00:Z","depth":"2","parameterNumber":3,"parameterNumberName":"V-component_of_CURRENTS"},"data":[0,0,0,-0.017,-0.0172,-0.026,-0.026,-0.035,-0.035,0,0,0,0,0,0,0,0,0,0,0,-0.0099,-0.0099,-0.0169,-0.0172,-0.026,-0.026,-0.0349,-0.035,0,0,0,0,0,0,0,0,0,0,0,-0.0099,-0.0099,-0.0099,-0.0173,-0.026,-0.026,-0.0349,-0.0285,0,0,0,0,0,0,0,0,0,0,-0.0201,-0.0186,-0.0099,-0.0099,-0.0173,-0.026,-0.026,-0.0282,-0.0289,-0.0308,0,-0.0303,0,-0.0354,-0.0357,-0.0358,0,0,0,-0.0157,-0.018,-0.0172,-0.0099,-0.0174,-0.026,-0.0216,-0.0286,-0.0294,-0.0317,-0.0304,-0.0309,-0.0355,-0.0358,-0.0358,-0.0355,-0.0354,0,0,-0.0152,-0.0152,-0.0166,-0.0176,-0.0174,-0.0213,-0.0219,-0.0291,-0.0308,-0.0305,-0.0313,-0.0357,-0.0359,-0.0359,-0.0356,-0.0355,0,0,0,-0.0148,-0.0149,-0.014,-0.0171,-0.0203,-0.0216,-0.0223,-0.0304,-0.0291,-0.0314,-0.0358,-0.0359,-0.0361,-0.0357,-0.0356,-0.0319,0,0,0,-0.0145,-0.0148,-0.0137,-0.0144,-0.0201,-0.0273,-0.0235,-0.0284,-0.0296,-0.0357,-0.0359,-0.0362,-0.0358,-0.0356,-0.0322,-0.0288,0,0,0,-0.0099,-0.0147,-0.0139,-0.0142,-0.0189,-0.0272,-0.0264,-0.0288,-0.0324,-0.0358,-0.0362,-0.0358,-0.0356,-0.0324,-0.0293,-0.0344,0,0,0,-0.0118,-0.0135,-0.0139,-0.0149,-0.0188,-0.0199,-0.0264,-0.0303,-0.0325,-0.036,-0.0358,-0.0356,-0.0325,-0.0296,-0.0345,-0.0393,-0.039,0,0,-0.0151,-0.0139,-0.0132,-0.0139,-0.0159,-0.0187,-0.0201,-0.0267,-0.0299,-0.0333,-0.0333,-0.0321,-0.0293,-0.0344,-0.0283,-0.0284,0,0,0,-0.0149,-0.0185,-0.0183,-0.0186,-0.0157,-0.017,-0.0224,-0.024,-0.0266,-0.0309,-0.0292,-0.0275,-0.031,-0.034,-0.0339,-0.0347,-0.0347,-0.0347,-0.0347,-0.0329,-0.0246,-0.0235,-0.0172,-0.0166,-0.0161,-0.016,-0.0182,-0.0224,-0.0216,-0.0224,-0.0203,-0.023,-0.0232,-0.021,-0.021,-0.0209,-0.0209,-0.0209,-0.0411,-0.034,-0.0269,-0.0248,-0.016,-0.0144,-0.0118,-0.0133,-0.0144,-0.0156,-0.0194,-0.0271,-0.023,-0.0206,-0.0206,-0.0207,-0.0207,-0.0208,-0.0208,-0.0476,-0.0396,-0.0379,-0.0275,-0.021,-0.0156,-0.0117,-0.0082,-0.0111,-0.0109,-0.0215,-0.0217,-0.0224,-0.0163,-0.0163,-0.0163,-0.0163,-0.0163,-0.0163,-0.0474,-0.0421,-0.0397,-0.0336,-0.0266,-0.0222,-0.0106,-0.0095,-0.0119,-0.0162,-0.0164,-0.0189,-0.019,-0.0221,-0.0164,-0.0164,-0.0163,-0.0163,-0.0163,-0.0465,-0.0446,-0.0411,-0.0378,-0.028,-0.0214,-0.0161,-0.0147,-0.016,-0.0229,-0.0221,-0.0219,-0.025,-0.0251,-0.0283,-0.0245,-0.0245,-0.0245,-0.0245,-0.0451,-0.0443,-0.0379,-0.0329,-0.0275,-0.0213,-0.0111,-0.0092,-0.0157,-0.0192,-0.0194,-0.0189,-0.0188,-0.0215,-0.0216,-0.0248,-0.0201,-0.02,-0.02,-0.0439,-0.0419,-0.0373,-0.0317,-0.0252,-0.0163,-0.002,0.0097,-0.0032,-0.0192,-0.012,-0.0255,-0.0254,-0.025,-0.0299,-0.0297,-0.0351,0,0]}],[{"header":{"parameterUnit":"m.s-1","parameterCategory":2,"la1":30.2992,"la2":30.254,"lo1":-89.0895,"lo2":-89.0443,"dy":0.0025,"dx":0.0025,"nx":19,"ny":19,"refTime":"2026-03-19T09:00:00:Z","depth":"4","parameterNumber":2,"parameterNumberName":"U-component_of_CURRENTS"},"data":[0,0,0,0.0375,0.0376,0.0438,0.0438,0.046,0.046,0,0,0,0,0,0,0,0,0,0,0,0.0346,0.0346,0.0375,0.0377,0.0438,0.0438,0.046,0.046,0,0,0,0,0,0,0,0,0,0,0,0.0346,0.0346,0.0346,0.0377,0.0438,0.0438,0.046,0.043,0,0,0,0,0,0,0,0,0,0,0.0378,0.0365,0.0346,0.0346,0.0377,0.0438,0.0438,0.0429,0.0432,0.0413,0,0.0412,0,0.0434,0.0459,0.0459,0,0,0,0.0386,0.0363,0.037,0.0346,0.0377,0.0438,0.0413,0.0431,0.0434,0.0416,0.0413,0.0415,0.0435,0.0459,0.0459,0.0461,0.0461,0,0,0.0382,0.0369,0.0368,0.0371,0.0378,0.0411,0.0414,0.0434,0.0434,0.0413,0.0416,0.0435,0.0459,0.0459,0.0461,0.0461,0,0,0,0.0366,0.0366,0.0375,0.0369,0.0384,0.0412,0.0417,0.0434,0.0433,0.0416,0.0435,0.0459,0.0459,0.0461,0.0461,0.0465,0,0,0,0.0365,0.0356,0.0373,0.0367,0.0384,0.042,0.0416,0.0432,0.0435,0.0435,0.0459,0.0459,0.0461,0.0461,0.0465,0.0484,0,0,0,0.0346,0.0355,0.0355,0.0366,0.0389,0.042,0.0423,0.0434,0.0446,0.0459,0.0459,0.046,0.0461,0.0465,0.0483,0.052,0,0,0,0.034,0.0344,0.0355,0.0358,0.0388,0.0415,0.0423,0.045,0.0461,0.0459,0.0461,0.0461,0.0465,0.0482,0.0519,0.0492,0,0,0,0.0343,0.0344,0.0344,0.0355,0.0379,0.0408,0.0432,0.0451,0.0457,0.0451,0.0452,0.0465,0.0483,0.0519,0.0505,0,0,0,0,0.0344,0.0352,0.0358,0.0372,0.0387,0.0423,0.0445,0.045,0.0467,0.0464,0.0468,0.048,0.0503,0.0483,0.0462,0.0462,0.0462,0.0462,0.0462,0.0369,0.0365,0.0378,0.0387,0.0401,0.0433,0.0453,0.0466,0.0461,0.0472,0.0485,0.052,0.0498,0.0478,0.0478,0.0478,0.0478,0.0478,0.0478,0.0389,0.0384,0.0396,0.0411,0.0428,0.045,0.0469,0.0476,0.0505,0.0491,0.0513,0.049,0.0478,0.0478,0.0478,0.0478,0.0478,0.0478,0.0478,0.0392,0.0386,0.0403,0.0417,0.0448,0.0471,0.0503,0.0517,0.0529,0.0544,0.055,0.054,0.054,0.0566,0.0566,0.0566,0.0566,0.0567,0.0567,0.0375,0.0389,0.0399,0.0426,0.0441,0.0477,0.0532,0.0561,0.0584,0.0572,0.0566,0.055,0.0547,0.0546,0.057,0.057,0.0569,0.0569,0.0569,0.0347,0.0355,0.0372,0.0387,0.0425,0.045,0.0515,0.0592,0.0626,0.0642,0.0587,0.0585,0.0591,0.0588,0.0587,0.0625,0.0625,0.0625,0,0.0319,0.0326,0.0345,0.0362,0.0386,0.0429,0.0486,0.0548,0.0589,0.0565,0.0604,0.0537,0.0537,0.0537,0.0534,0.053,0,0,0,0.0293,0.031,0.0313,0.0341,0.0366,0.0432,0.0501,0.0527,0.0568,0.0633,0.062,0.0621,0.06,0.0581,0.0587,0.0584,0.0582,0,0]},{"header":{"parameterUnit":"m.s-1","parameterCategory":2,"la1":30.2992,"la2":30.254,"lo1":-89.0895,"lo2":-89.0443,"dy":0.0025,"dx":0.0025,"nx":19,"ny":19,"refTime":"2026-03-19T09:00:00:Z","depth":"4","parameterNumber":3,"parameterNumberName":"V-component_of_CURRENTS"},"data":[0,0,0,-0.037,-0.0371,-0.0429,-0.0429,-0.0527,-0.0528,0,0,0,0,0,0,0,0,0,0,0,-0.0363,-0.0363,-0.037,-0.0371,-0.0429,-0.0429,-0.0527,-0.0528,0,0,0,0,0,0,0,0,0,0,0,-0.0363,-0.0363,-0.0364,-0.0371,-0.0429,-0.0429,-0.0527,-0.0481,0,0,0,0,0,0,0,0,0,0,-0.0423,-0.041,-0.0363,-0.0364,-0.0371,-0.0428,-0.0429,-0.0478,-0.0484,-0.0503,0,-0.0513,0,-0.0512,-0.0534,-0.0534,0,0,0,-0.0385,-0.0406,-0.0414,-0.0364,-0.0372,-0.0428,-0.0407,-0.0481,-0.0487,-0.051,-0.0514,-0.0518,-0.0513,-0.0534,-0.0535,-0.0615,-0.0615,0,0,-0.0382,-0.0382,-0.041,-0.0418,-0.0388,-0.0405,-0.0408,-0.0485,-0.0496,-0.0515,-0.052,-0.0515,-0.0535,-0.0536,-0.0615,-0.0615,0,0,0,-0.0363,-0.038,-0.0386,-0.0414,-0.0417,-0.0406,-0.041,-0.0494,-0.0494,-0.052,-0.0516,-0.0535,-0.0536,-0.0614,-0.0615,-0.06,0,0,0,-0.0362,-0.0367,-0.0385,-0.0386,-0.0415,-0.0452,-0.0417,-0.0489,-0.0497,-0.0516,-0.0535,-0.0537,-0.0614,-0.0615,-0.06,-0.0573,0,0,0,-0.036,-0.0367,-0.0372,-0.0386,-0.0402,-0.0451,-0.0456,-0.0491,-0.0494,-0.0534,-0.0538,-0.0614,-0.0615,-0.06,-0.0574,-0.0554,0,0,0,-0.0359,-0.0361,-0.0373,-0.0388,-0.0401,-0.0438,-0.0456,-0.0494,-0.0529,-0.0536,-0.0614,-0.0615,-0.06,-0.0575,-0.0555,-0.0458,0,0,0,-0.0354,-0.0361,-0.0371,-0.0381,-0.0403,-0.0431,-0.0467,-0.0517,-0.0544,-0.0593,-0.0595,-0.06,-0.0574,-0.0554,-0.0492,0,0,0,0,-0.0365,-0.0365,-0.0378,-0.0397,-0.043,-0.0455,-0.0504,-0.0526,-0.0574,-0.0563,-0.0615,-0.06,-0.0587,-0.0534,-0.0618,-0.0617,-0.0617,-0.0617,-0.0617,-0.035,-0.0367,-0.0379,-0.0403,-0.0431,-0.048,-0.0504,-0.0543,-0.0582,-0.0601,-0.06,-0.0589,-0.0535,-0.0625,-0.0625,-0.0625,-0.0625,-0.0625,-0.0625,-0.0339,-0.0351,-0.0371,-0.0388,-0.0424,-0.0462,-0.0505,-0.0532,-0.0568,-0.0601,-0.059,-0.0538,-0.0624,-0.0624,-0.0624,-0.0624,-0.0624,-0.0624,-0.0624,-0.0346,-0.0347,-0.0363,-0.0385,-0.0403,-0.0444,-0.0434,-0.0487,-0.0537,-0.054,-0.0487,-0.0571,-0.0557,-0.0545,-0.0545,-0.0545,-0.0545,-0.0545,-0.0544,-0.035,-0.0355,-0.036,-0.0378,-0.0381,-0.0384,-0.0403,-0.0403,-0.0456,-0.0446,-0.0536,-0.0562,-0.0564,-0.0552,-0.0542,-0.0542,-0.0542,-0.0543,-0.0543,-0.0344,-0.036,-0.0351,-0.0353,-0.0337,-0.0324,-0.0335,-0.0304,-0.0303,-0.03,-0.0393,-0.0401,-0.0389,-0.0396,-0.0377,-0.0314,-0.0313,-0.0312,0,-0.0342,-0.0349,-0.032,-0.0295,-0.0268,-0.0273,-0.0214,-0.0212,-0.0257,-0.0255,-0.0338,-0.0446,-0.045,-0.0442,-0.0446,-0.0426,0,0,0,-0.0324,-0.0318,-0.0283,-0.0267,-0.0226,-0.0191,-0.0192,-0.017,-0.0255,-0.0198,-0.0278,-0.0287,-0.0421,-0.0533,-0.0535,-0.0538,-0.0518,0,0]}]]